Wind_Speed
39 40 41 43 44 45 46 47 47 48 50 51 53 54 56 57 58 60 61 62 62 61 60 59 57 56 55 54 54 53 53 53 53 52 54 54 51 52 54 54 54 55 55 57 57 57 56 56 56 57 56 56 56 57 58 59 60 60 59 55 50 49 49 49 51 52 54 57 59 60 59 55 53 54 53 51 47 45 43 40 39 38 36 36 36 36 35 36
42 43 44 46 47 48 49 50 51 52 53 54 55 56 58 59 61 62 63 65 65 66 64 63 61 59 58 56 56 55 54 54 53 53 54 53 51 53 53 53 54 53 53 55 56 56 56 55 55 56 55 55 54 55 55 56 56 56 56 54 50 51 52 54 56 57 58 59 62 62 61 57 55 58 57 53 50 48 44 42 41 40 39 38 37 36 35 35
45 46 48 49 51 52 54 55 56 57 58 59 59 59 60 61 63 64 66 67 68 69 69 68 66 64 62 60 59 58 57 56 55 56 56 53 52 53 53 54 54 53 53 54 54 53 53 53 53 54 54 53 53 54 54 53 53 52 52 50 48 51 55 57 59 59 60 62 64 65 63 59 58 60 59 54 53 50 46 45 45 43 42 40 38 37 36 35
47 49 51 52 54 56 57 59 60 62 63 64 64 65 65 65 65 66 68 69 71 71 71 72 71 69 67 64 64 62 61 60 59 60 59 56 55 54 54 55 55 54 53 53 52 52 51 51 51 51 51 50 51 52 52 52 51 51 50 46 47 51 55 58 60 62 63 65 66 67 65 61 61 62 59 56 54 52 50 50 47 45 43 41 40 38 37 36
50 52 54 56 58 59 61 63 64 66 67 68 69 70 70 70 70 70 70 71 73 74 74 74 74 74 72 70 68 66 66 65 64 65 64 61 59 57 56 56 56 55 54 53 53 52 51 50 50 49 48 47 48 48 47 49 50 50 48 47 48 51 53 57 60 63 65 66 67 67 66 64 64 62 59 58 55 53 55 54 49 46 45 43 42 40 38 38
54 56 58 60 62 63 65 67 68 70 71 72 73 74 75 75 75 75 74 74 75 76 77 77 77 77 76 76 74 71 70 69 69 70 70 67 64 62 60 59 59 57 56 55 55 54 53 52 51 49 48 47 46 45 45 47 49 47 45 47 50 51 53 55 59 62 64 66 66 67 68 68 66 61 60 59 56 56 59 56 50 48 47 46 44 42 40 40
58 60 62 64 66 68 70 71 73 74 75 76 78 79 80 80 80 80 80 79 78 79 80 80 80 79 79 79 79 77 74 74 76 76 75 71 68 66 65 64 63 61 59 58 58 57 55 53 52 50 49 48 47 45 46 48 48 45 43 46 48 50 53 55 57 60 62 64 66 68 69 68 66 63 62 60 57 58 61 56 51 51 50 48 46 45 43 43
61 64 66 68 71 73 75 77 79 80 81 83 84 85 85 86 86 86 85 84 83 82 82 83 83 83 82 82 82 80 79 82 84 80 77 75 73 71 69 68 67 65 63 62 61 59 57 55 54 53 51 50 49 48 48 49 47 43 42 44 46 49 51 54 57 59 61 63 65 67 66 66 68 66 63 60 59 61 60 57 53 53 52 50 49 47 47 46
65 67 70 73 76 78 81 83 85 87 88 89 90 91 92 93 93 92 91 90 88 87 86 86 86 86 86 85 85 82 83 90 89 82 80 79 78 76 73 71 70 68 66 65 64 63 60 58 57 57 55 53 52 50 50 48 45 42 42 45 46 47 50 53 56 58 61 62 63 63 62 65 68 66 62 61 62 62 61 57 55 54 53 52 51 50 49 50
69 72 75 78 81 84 86 89 91 92 93 94 95 96 98 98 99 98 98 97 95 92 90 89 89 89 88 89 88 84 89 95 91 86 84 83 82 80 77 74 72 70 69 68 67 66 65 64 63 61 58 56 54 51 50 48 45 43 44 45 46 45 48 51 54 57 59 61 61 60 60 64 65 62 59 61 64 64 61 58 56 55 53 53 53 52 52 53
73 76 80 83 86 88 90 92 93 94 95 96 97 99 100 101 102 102 102 102 101 99 96 93 92 92 92 91 90 90 95 95 90 89 88 87 86 83 80 78 75 74 72 70 70 69 69 68 67 63 59 58 56 54 53 49 47 46 45 45 46 45 46 49 52 54 56 58 59 60 60 62 61 56 55 61 64 64 62 60 58 56 54 53 53 54 56 57
77 81 84 86 88 89 89 89 89 90 91 93 95 97 100 101 103 103 104 104 104 103 101 99 96 94 94 93 93 96 99 96 92 91 90 90 90 88 85 82 80 79 77 75 73 72 71 71 69 65 62 61 60 58 56 52 49 48 46 45 47 47 46 47 50 53 54 56 58 59 59 59 57 53 56 62 63 62 62 60 59 57 56 55 55 57 59 60
80 83 85 85 84 82 81 81 82 84 86 89 91 93 96 98 99 100 102 104 105 105 104 102 99 96 94 94 97 101 100 98 97 95 92 91 91 90 89 87 85 83 81 80 78 76 74 73 69 66 65 63 63 62 58 55 52 50 49 47 48 48 46 47 50 52 53 53 57 58 55 55 56 55 58 62 61 60 59 58 58 57 57 58 60 62 62 62
81 81 79 76 74 74 75 76 78 80 82 85 87 89 92 94 94 94 95 98 101 104 104 103 101 99 95 95 101 105 102 101 101 99 95 91 90 91 90 90 89 87 86 84 82 80 78 75 71 68 66 64 64 64 61 58 55 53 52 48 48 47 46 49 51 51 51 52 56 56 50 51 56 57 59 62 60 58 56 56 56 56 57 60 63 65 65 64
77 74 70 68 69 70 72 73 74 76 78 80 83 86 88 89 89 88 87 89 93 97 99 101 101 100 97 97 104 107 104 103 103 103 99 94 92 92 91 91 91 90 89 88 86 84 81 78 74 70 68 66 66 65 62 60 57 55 52 48 47 47 48 51 52 51 52 52 55 53 47 49 54 56 59 61 60 58 56 55 54 55 57 60 64 66 66 65
71 67 65 66 67 67 68 68 69 71 73 76 79 82 83 82 82 81 80 81 84 87 90 94 98 99 98 101 106 107 105 105 106 105 102 98 95 95 93 91 90 91 91 91 89 87 84 80 76 74 71 69 67 65 63 61 58 56 52 48 48 49 49 53 54 53 54 54 54 51 45 47 53 56 57 58 59 58 57 56 55 55 57 60 63 64 64 65
67 65 64 64 63 63 63 64 65 67 69 72 76 77 76 74 74 74 74 75 77 80 82 85 88 92 96 102 108 109 106 106 107 106 104 101 99 97 95 92 90 91 92 92 91 88 85 82 79 77 74 71 68 66 64 59 56 54 52 50 49 49 50 53 55 55 55 56 54 51 46 46 53 56 54 55 56 56 56 57 57 57 58 60 61 61 61 63
66 65 64 62 60 59 60 60 61 62 65 69 71 71 69 67 67 66 65 67 70 73 77 79 81 83 89 100 110 112 108 106 108 108 106 103 101 100 97 94 93 92 92 92 90 88 86 84 82 80 76 72 69 66 62 57 55 55 53 52 51 51 51 53 57 58 57 57 56 52 47 46 52 54 52 53 53 53 53 55 58 58 59 59 59 58 59 61
68 66 63 60 58 57 56 56 56 58 61 64 65 63 61 61 60 58 57 59 63 66 70 74 77 78 83 95 105 109 107 106 108 109 107 104 103 102 99 97 96 95 93 91 88 88 87 85 83 80 75 71 69 66 62 60 59 58 56 55 55 54 52 53 57 59 58 58 56 53 48 47 51 52 50 51 51 51 51 53 56 57 59 60 59 58 59 61
70 67 62 59 56 55 53 52 53 54 56 59 60 58 56 56 54 52 52 52 54 58 62 66 71 74 80 89 96 101 103 104 107 109 108 106 104 103 102 100 98 97 94 91 88 87 86 85 81 77 74 72 71 69 66 64 62 60 58 56 56 54 52 53 56 59 58 57 56 54 50 48 50 51 49 48 48 49 51 52 53 55 58 60 60 60 60 61
71 67 63 59 55 54 52 50 50 51 52 53 53 52 52 51 48 47 48 47 46 50 54 59 63 69 77 84 89 91 95 100 106 109 108 107 105 104 104 102 101 98 95 93 91 89 86 81 77 75 75 75 74 71 69 66 63 61 59 56 56 54 52 52 55 57 58 56 55 54 51 49 50 51 49 47 45 47 50 51 51 52 54 57 58 59 59 59
73 68 64 59 55 53 50 49 48 49 49 49 47 46 46 45 43 42 44 43 40 42 47 52 56 64 73 81 83 82 86 94 103 109 109 108 107 106 105 104 102 100 98 97 93 89 83 76 73 74 75 76 75 72 70 66 64 62 60 57 56 54 52 52 54 56 56 54 55 54 52 49 50 52 50 47 44 46 48 49 50 49 50 50 52 54 56 57
74 70 65 61 56 53 50 48 48 47 46 45 43 42 41 40 38 37 38 38 35 36 43 48 53 61 70 77 77 75 80 90 99 107 108 108 109 108 107 105 103 103 101 98 93 88 82 76 74 74 74 75 74 72 69 67 65 63 60 57 55 54 53 53 55 56 54 52 53 53 52 51 50 51 50 47 45 46 46 46 45 45 45 46 46 48 50 54
76 71 67 63 58 53 50 48 47 45 44 43 41 39 37 35 34 33 33 33 31 33 41 46 51 59 67 73 73 73 79 87 94 100 104 107 110 110 108 106 104 103 102 98 94 90 84 80 78 76 75 74 73 70 68 66 64 62 60 57 55 55 55 55 57 56 53 50 50 51 51 50 50 50 50 49 47 46 44 43 42 41 43 44 45 44 45 49
78 72 68 64 60 55 51 49 47 44 42 41 39 37 34 31 30 28 28 29 27 31 39 44 49 56 63 67 70 71 77 84 89 93 98 105 109 110 110 108 104 103 101 100 97 92 87 84 81 79 77 75 73 70 68 66 65 63 60 58 57 56 57 58 58 56 53 49 48 48 47 46 49 50 52 51 47 45 43 42 41 40 41 43 44 44 44 47
79 73 69 66 61 57 53 51 48 44 42 40 38 35 32 28 26 25 24 25 25 29 37 42 46 52 58 62 65 68 73 81 86 87 90 99 107 109 110 108 105 103 102 102 99 94 90 86 83 81 79 76 73 70 69 68 66 64 61 59 59 58 58 59 59 57 54 50 48 47 42 43 46 49 52 51 48 45 43 41 41 40 40 41 43 44 44 45
81 75 71 67 62 58 54 52 49 45 42 39 37 34 31 27 23 21 21 21 23 27 33 39 43 47 52 56 59 64 71 79 84 83 84 92 102 107 109 108 106 104 103 103 100 95 91 87 84 83 81 78 74 70 69 69 67 64 62 62 61 60 61 61 60 58 54 51 49 45 42 41 42 44 48 49 46 44 42 41 41 41 40 40 42 43 42 43
83 77 72 68 63 59 55 53 49 45 41 38 35 31 29 26 21 19 18 19 20 24 29 35 39 42 46 51 55 60 67 76 81 80 81 89 97 103 108 108 107 106 105 102 98 95 93 89 87 85 82 79 74 72 72 72 70 66 65 65 65 64 63 63 62 59 56 53 48 45 43 40 39 41 43 44 44 44 43 42 43 42 41 40 40 41 42 44
85 78 74 70 64 59 55 52 49 45 41 37 33 29 27 25 20 16 16 17 18 21 25 30 34 38 42 46 51 56 62 70 75 75 79 86 92 98 104 107 108 107 105 102 99 97 95 92 89 87 84 80 77 76 76 75 72 70 70 70 69 67 66 64 62 59 57 52 46 45 44 39 39 40 39 40 43 44 44 44 44 43 42 40 38 40 42 44
86 80 75 71 65 60 56 52 48 45 40 36 32 28 26 23 20 16 14 15 16 19 21 26 30 34 38 42 47 51 56 63 67 70 76 84 88 93 99 104 107 107 106 103 101 99 97 94 91 89 86 83 82 81 80 78 76 74 75 74 72 70 67 64 61 60 56 48 45 47 44 40 39 40 37 38 41 44 45 45 44 44 42 40 39 41 44 45
88 81 75 72 66 61 57 53 48 44 40 36 32 29 25 22 19 16 14 13 15 16 18 21 25 30 35 39 43 46 51 57 62 67 75 81 84 88 93 99 104 106 105 103 101 99 98 95 93 90 89 87 86 85 83 82 80 78 78 76 74 71 68 64 62 59 52 44 46 48 44 40 38 39 39 37 39 43 44 44 45 45 42 39 39 42 45 45
89 83 76 72 67 61 58 54 49 44 40 37 33 28 24 21 17 15 13 12 13 13 15 17 21 26 31 35 39 42 46 52 58 66 74 78 80 82 86 92 99 103 103 101 99 99 98 96 94 92 91 89 88 87 85 83 81 80 80 77 73 69 67 63 60 55 48 45 49 49 44 39 36 39 41 37 38 42 43 44 46 44 40 38 39 41 43 43
91 84 77 73 68 62 58 54 49 44 39 35 31 26 22 19 16 13 12 11 11 11 12 14 17 21 26 30 34 39 44 49 55 63 71 76 77 79 82 87 94 99 100 100 99 99 99 97 96 94 92 89 88 86 83 81 79 79 79 75 71 68 64 60 57 53 48 47 51 51 45 39 36 40 42 37 38 41 42 45 45 42 40 38 38 39 40 41
92 85 78 73 68 62 58 54 49 44 39 33 27 23 19 17 15 13 11 10 9 9 9 11 14 18 23 27 31 36 42 47 53 60 68 72 74 76 78 82 88 94 98 99 99 99 98 97 95 93 90 88 87 84 82 81 80 80 79 75 72 68 64 61 57 54 50 49 52 52 44 37 36 40 42 38 38 40 41 43 43 41 39 37 37 38 39 39
94 86 79 73 69 63 58 54 49 44 39 32 26 21 19 17 16 14 11 9 8 7 7 8 11 15 20 25 28 33 40 45 50 56 63 68 72 72 74 78 84 89 94 97 98 98 98 96 94 92 90 88 86 85 84 83 82 81 80 75 71 68 66 64 60 56 52 51 54 51 42 37 37 41 43 40 38 39 40 40 41 41 38 36 36 38 39 39
95 86 79 73 69 63 58 54 49 44 38 33 27 23 20 19 18 16 12 10 8 6 5 5 8 13 17 22 26 31 37 42 47 53 59 65 69 71 73 76 80 85 89 94 96 97 97 96 94 93 91 89 87 86 85 83 81 80 77 71 68 68 66 64 61 58 54 53 54 50 42 39 39 41 43 41 39 39 38 39 41 40 38 36 37 38 38 39
97 87 79 73 69 63 57 54 49 43 38 33 28 24 23 22 22 19 14 11 9 8 6 4 6 10 14 19 24 30 35 40 45 51 56 62 66 69 72 75 77 81 87 92 95 96 95 95 94 93 91 90 88 87 86 84 82 78 73 69 69 68 66 63 61 59 54 52 53 49 43 41 40 41 44 43 39 38 38 38 40 40 39 37 37 38 39 40
100 89 80 73 68 63 57 53 49 43 38 34 30 27 25 25 24 21 17 13 11 10 8 4 3 7 12 17 23 28 33 38 43 48 53 58 64 67 70 72 74 79 85 90 94 95 95 94 93 93 92 91 89 88 86 83 81 77 74 72 69 66 64 62 61 58 54 52 52 48 44 41 40 41 45 44 40 38 38 38 39 40 40 38 38 39 40 42
101 90 81 73 68 63 56 52 49 43 38 34 31 28 26 25 25 23 20 15 13 11 9 5 2 6 11 16 21 27 32 36 40 45 50 55 60 65 68 70 72 76 82 88 92 95 95 94 94 93 93 92 90 87 83 80 79 77 75 72 69 65 63 61 59 57 54 52 52 49 45 42 41 42 46 46 41 39 38 38 41 43 41 39 38 39 41 43
101 92 83 75 68 63 57 52 49 44 39 34 30 27 27 26 26 24 20 17 14 12 9 5 1 4 10 15 20 25 29 33 37 42 46 51 57 61 65 68 70 75 81 87 91 93 94 94 93 93 93 90 87 83 80 79 78 75 73 70 67 64 62 61 60 58 55 53 53 50 46 44 43 44 47 46 42 39 39 40 42 44 41 39 39 40 41 42
102 95 85 77 70 64 57 52 49 44 39 34 30 26 26 26 25 23 21 18 15 13 10 6 2 3 9 14 18 22 26 30 34 38 42 47 53 58 62 65 68 73 78 83 88 92 93 93 93 92 89 85 81 80 81 81 79 75 72 69 66 63 61 59 59 56 54 54 54 52 48 45 45 46 47 46 43 40 39 40 42 42 41 39 38 39 40 41
102 97 86 77 70 64 57 50 46 42 38 33 29 26 26 25 24 23 21 19 16 13 11 7 3 2 7 12 16 20 23 26 30 34 38 43 49 55 58 62 66 71 76 81 87 91 92 91 91 88 85 82 83 84 84 82 80 78 75 71 68 64 60 57 56 55 54 54 54 52 49 47 47 47 47 46 43 41 39 39 41 42 41 39 38 38 39 40
101 97 87 77 70 64 58 50 44 41 37 32 29 26 25 24 23 22 21 19 16 13 11 8 4 1 5 9 13 17 20 23 28 32 36 40 46 51 55 59 64 69 74 80 85 89 90 90 89 87 85 85 86 86 85 83 81 78 74 71 67 63 60 58 57 56 55 54 54 52 49 48 48 47 46 46 44 41 40 40 41 42 41 40 39 38 39 40
99 96 87 78 70 65 59 51 45 41 38 33 29 27 25 24 23 22 21 20 17 13 11 8 5 2 3 6 11 15 19 22 26 30 35 39 44 49 53 57 61 66 71 76 81 85 88 89 89 88 87 88 88 88 85 82 78 74 70 67 65 63 62 61 59 58 56 54 53 52 50 49 48 46 46 46 45 43 41 40 40 41 42 41 40 39 40 41
98 96 88 78 70 64 59 53 47 42 39 35 30 27 26 24 23 22 21 20 17 13 10 7 5 4 4 6 9 13 18 23 26 30 34 38 43 48 52 55 60 65 70 75 79 84 88 90 90 89 88 86 83 80 76 72 70 69 68 66 65 63 62 61 60 58 55 53 52 51 50 49 47 45 45 46 46 45 43 41 39 39 40 41 40 41 41 41
96 97 89 78 69 63 58 53 47 42 39 36 31 27 26 24 23 22 21 19 16 12 9 7 4 5 6 7 9 12 17 22 27 30 32 35 40 46 52 56 61 65 69 74 77 81 85 88 88 88 86 81 77 72 70 70 69 68 67 66 64 62 62 62 60 57 55 54 53 51 50 49 47 45 45 46 47 46 44 41 40 39 40 40 42 43 42 41
93 95 90 79 70 62 57 51 46 41 39 35 31 27 26 25 23 22 20 18 15 11 9 7 4 4 7 9 11 13 17 22 27 30 33 36 40 46 53 57 60 63 67 71 74 78 80 82 83 84 82 80 78 75 73 72 70 68 66 65 63 62 61 60 58 56 55 54 53 52 51 49 47 45 45 46 46 46 44 42 40 39 39 40 43 44 44 42
90 92 88 79 70 63 57 51 45 40 37 34 31 27 25 24 23 21 19 17 14 11 8 7 3 3 6 10 13 15 18 22 26 30 35 39 42 47 52 56 58 60 63 66 70 73 76 78 80 81 80 78 77 75 73 70 69 67 66 64 63 61 59 58 57 56 55 54 53 52 51 50 48 46 46 46 46 46 44 42 40 38 37 39 41 44 45 44
89 91 88 79 70 63 57 51 45 40 36 33 30 26 24 23 21 20 19 16 14 11 8 6 3 1 5 8 11 16 19 21 25 30 35 39 43 46 49 52 55 57 60 64 67 69 73 76 78 80 80 78 75 73 71 69 68 66 65 63 63 61 59 58 57 56 54 53 52 51 50 49 48 47 46 46 46 45 44 42 40 37 37 38 40 43 45 44
87 90 88 80 70 62 56 50 44 39 35 33 30 26 23 21 20 19 18 16 13 10 7 5 4 1 3 7 10 14 19 22 25 30 34 37 41 44 46 48 51 54 58 62 65 68 71 75 77 79 80 78 76 73 70 68 67 66 64 63 63 62 59 58 57 55 53 52 51 50 49 48 47 47 46 46 46 45 43 41 39 38 38 39 40 43 45 45
84 87 87 80 70 62 56 50 44 38 34 32 29 26 22 21 20 18 17 15 12 9 6 5 4 1 2 6 9 13 19 22 25 28 33 36 39 41 44 46 49 52 56 60 64 68 71 73 76 78 79 78 76 73 71 69 67 66 65 64 63 61 60 59 57 55 54 53 52 50 49 49 48 48 47 47 47 45 43 42 40 39 39 41 43 45 46 46
81 84 84 79 70 61 55 50 44 38 33 30 29 26 22 20 20 17 15 14 11 8 6 4 4 2 2 6 10 14 19 22 24 27 31 36 39 41 43 46 48 51 55 59 64 68 71 73 75 77 78 77 76 74 72 70 68 66 64 63 62 62 61 60 58 56 55 54 52 50 50 50 50 50 49 49 48 46 45 43 41 40 41 43 45 46 46 46
Wind_Direction
289 287 286 284 282 281 279 278 277 275 274 273 271 269 267 264 262 260 258 257 255 254 253 251 248 246 244 242 240 238 238 238 237 237 237 237 235 234 235 235 234 234 234 235 236 235 235 235 237 238 237 237 238 239 239 239 239 239 240 239 236 234 234 234 233 232 230 233 239 243 244 241 241 243 242 243 240 239 241 238 238 238 236 235 235 235 235 239
289 288 286 285 283 281 280 278 276 274 273 272 270 269 268 266 264 261 259 257 255 254 253 251 249 247 244 242 239 237 235 236 236 236 235 235 233 233 233 233 232 232 232 233 234 234 234 234 235 237 237 237 237 238 239 238 239 239 239 237 234 233 233 233 233 232 232 233 238 242 243 240 240 242 240 240 240 238 238 238 237 236 236 234 233 234 233 237
290 289 288 286 285 283 281 279 277 276 274 272 270 268 267 265 264 262 260 258 255 254 252 251 249 247 245 242 239 236 234 234 235 236 235 233 233 232 231 231 231 230 230 232 232 232 233 233 233 234 236 236 236 237 238 238 238 238 238 235 233 233 232 232 233 233 233 234 237 240 242 241 240 242 240 239 241 239 237 237 236 234 235 234 233 233 231 233
291 290 289 288 286 285 283 281 279 277 274 272 271 269 267 265 263 261 260 258 256 254 252 251 249 247 245 243 240 237 235 234 234 236 235 233 232 232 231 230 230 228 228 230 230 230 230 231 231 232 233 234 235 236 236 237 237 237 236 233 232 231 230 231 232 232 233 234 236 238 241 241 240 241 240 239 240 241 239 237 236 235 235 234 234 233 231 230
291 290 290 289 288 286 284 282 279 277 274 272 270 268 267 265 263 260 259 257 256 254 252 250 248 247 245 243 241 238 236 235 234 236 235 233 232 232 232 232 231 229 227 228 229 229 228 229 230 230 230 231 233 234 235 235 235 235 234 232 230 230 230 231 232 232 233 234 236 238 240 240 240 240 240 239 239 241 241 237 235 236 236 235 234 233 231 230
292 292 291 290 288 287 285 282 280 277 274 271 269 267 265 263 262 260 258 256 254 253 252 250 248 246 245 243 241 239 237 236 235 236 235 233 232 232 233 234 233 231 229 228 229 229 228 228 229 229 229 229 231 232 233 234 233 232 231 231 230 229 229 231 232 233 234 235 236 238 239 240 241 241 241 241 239 239 241 239 236 237 237 237 235 234 233 232
293 292 291 290 288 287 285 283 280 277 275 272 269 266 264 262 260 259 257 255 253 251 250 249 248 246 244 243 241 239 237 237 236 235 235 233 232 232 232 233 234 233 231 230 230 231 230 229 229 229 229 229 230 231 232 234 233 230 230 231 231 229 230 231 232 233 235 235 236 237 238 241 242 242 241 241 240 240 242 240 237 237 237 237 236 235 235 233
293 292 291 289 288 286 284 282 280 278 275 273 270 267 265 262 260 258 257 255 252 250 248 247 246 245 244 242 241 239 238 237 236 234 235 235 233 232 232 232 234 233 232 232 232 232 232 231 230 230 229 229 230 231 233 235 234 231 231 232 231 230 231 232 232 233 235 235 236 237 239 241 242 241 241 242 242 242 243 242 239 238 238 237 236 235 236 236
293 292 291 289 287 285 284 282 280 278 275 273 270 268 265 263 261 259 257 255 253 250 248 245 244 243 243 242 240 239 238 238 236 234 234 235 234 233 232 232 233 233 232 233 233 234 234 233 232 231 229 229 230 231 234 236 236 234 233 234 232 231 231 232 233 233 235 236 236 238 239 240 241 241 242 243 243 243 243 243 241 240 239 238 237 236 236 237
295 293 292 289 287 285 283 281 279 277 275 272 270 267 265 263 261 259 258 256 254 252 249 246 243 241 241 241 240 238 238 238 236 234 233 234 235 234 233 233 233 234 233 233 234 234 234 234 234 232 231 231 232 233 235 237 237 235 234 236 234 232 232 233 234 235 235 236 237 238 238 240 241 242 243 244 244 244 244 243 243 242 241 240 239 238 238 239
296 294 292 290 287 286 284 281 279 276 274 271 268 266 264 262 260 258 257 256 254 253 250 247 244 241 239 239 239 238 238 238 236 234 233 233 235 235 234 234 234 235 235 234 233 234 234 235 235 234 234 234 235 235 237 237 237 237 235 236 237 235 234 235 236 237 237 237 238 237 237 239 242 242 243 244 244 244 244 243 243 243 242 242 241 240 240 241
297 294 292 291 289 287 284 281 279 276 273 270 268 265 263 261 259 257 256 255 254 252 251 248 245 241 238 237 236 237 237 238 236 234 232 232 233 234 234 234 234 235 235 235 234 234 234 234 235 235 234 235 236 237 238 239 239 239 237 237 238 237 236 236 237 238 237 238 238 237 237 239 241 240 241 242 242 242 243 243 243 243 243 243 243 242 241 241
298 297 295 293 291 288 284 281 278 275 273 271 269 267 265 263 261 258 256 255 253 252 251 249 247 243 239 236 235 235 236 236 236 234 232 231 232 233 233 234 234 234 234 235 234 234 234 234 234 234 234 234 236 237 238 239 240 241 240 238 239 238 237 238 238 239 239 239 239 238 236 238 240 238 239 241 242 241 242 242 242 242 242 243 243 242 242 241
302 300 298 296 292 289 285 283 280 277 275 273 271 269 267 266 264 261 258 256 254 252 251 250 247 244 241 236 235 235 234 234 235 235 232 230 230 232 231 232 233 233 233 234 234 234 234 234 234 234 235 235 236 237 237 239 240 241 241 240 240 241 239 238 238 240 241 240 241 239 235 237 238 237 238 240 241 241 241 241 241 240 241 242 242 243 242 242
307 305 302 299 295 292 289 286 283 280 278 275 272 269 268 267 266 264 261 258 255 253 251 250 248 245 242 237 235 235 233 232 233 234 233 230 229 230 230 230 232 232 232 233 233 234 234 234 233 234 234 234 236 237 237 238 240 241 243 242 243 242 239 239 239 240 241 241 241 240 235 236 239 237 237 239 240 240 239 240 240 239 239 240 241 242 242 243
313 310 307 303 300 296 293 290 286 283 280 277 274 272 271 270 269 268 265 261 257 255 252 249 247 245 242 237 236 236 233 231 231 232 232 231 229 229 229 229 230 232 232 232 232 233 234 234 234 234 234 234 235 236 237 237 239 241 243 243 244 243 240 240 240 239 240 241 242 240 235 235 239 238 237 238 239 239 238 238 238 237 238 239 241 241 242 243
319 315 312 308 305 301 297 293 289 286 282 279 277 276 276 275 272 269 266 262 258 255 253 250 247 245 242 238 237 236 233 231 230 230 231 230 229 229 229 228 229 231 231 231 231 232 232 233 234 234 234 234 235 236 236 238 240 243 244 244 244 243 241 240 240 238 238 240 241 239 234 234 239 238 236 237 238 239 238 237 237 236 237 239 241 242 242 244
324 321 317 313 310 305 300 296 292 289 285 282 281 281 280 278 274 270 266 262 258 254 251 249 247 243 240 238 237 236 234 231 230 229 229 229 229 229 228 228 228 229 230 231 231 231 231 232 233 233 234 234 235 237 237 238 240 242 242 240 240 239 237 237 239 237 236 238 239 238 234 233 238 239 236 236 238 238 238 237 237 237 238 240 241 242 243 244
328 325 322 318 315 309 305 301 296 292 289 286 285 285 283 279 276 273 267 261 257 252 248 246 244 242 239 237 236 235 233 231 230 229 228 227 228 228 228 227 228 228 229 230 230 231 231 231 232 233 234 235 236 237 237 236 237 238 237 236 236 236 234 234 237 237 236 236 238 238 235 234 239 241 239 237 237 238 239 238 237 237 239 240 241 242 243 244
332 330 326 323 320 315 310 306 300 296 292 290 290 289 286 282 279 275 269 262 256 252 248 244 241 239 238 236 236 235 233 231 230 229 228 227 226 227 227 227 227 228 228 229 230 230 230 230 231 232 233 234 235 235 235 234 235 235 234 234 234 235 234 234 237 238 237 236 237 238 236 236 240 244 242 240 239 240 240 240 239 239 239 240 240 240 241 243
336 334 331 328 325 321 316 310 305 300 297 294 293 292 288 284 281 276 271 264 256 251 247 243 239 236 236 236 235 233 232 230 229 229 228 227 226 226 226 226 227 227 227 228 228 229 229 229 229 230 231 232 232 233 233 233 233 233 232 232 233 233 233 234 236 238 237 236 236 237 236 236 240 244 244 242 241 242 242 242 241 241 241 242 242 241 242 244
339 337 335 332 330 326 321 316 311 307 303 300 298 295 290 287 283 277 271 265 257 250 246 242 237 234 233 234 233 230 230 229 228 228 227 226 226 225 225 225 225 226 226 227 227 227 228 228 228 229 230 231 231 231 231 231 231 231 230 230 231 232 232 233 235 237 237 236 236 236 235 235 238 242 243 243 242 243 244 243 243 242 244 245 245 245 244 245
343 341 339 336 334 330 326 322 318 314 310 306 303 300 295 290 285 277 271 266 258 249 243 237 233 231 231 231 230 227 226 227 227 226 225 225 225 225 224 224 224 225 226 226 226 226 226 226 227 228 228 229 229 229 230 230 229 229 229 228 230 231 231 233 235 237 238 237 237 236 234 233 236 240 244 244 242 243 245 246 246 245 245 246 246 246 246 245
345 344 342 340 337 335 331 328 324 320 317 313 310 305 300 294 286 278 272 266 257 246 241 235 231 229 229 229 228 224 223 225 226 225 223 223 224 225 224 224 223 224 225 225 225 224 223 223 224 225 226 227 227 227 227 227 227 228 227 226 228 229 230 232 234 236 237 238 238 238 237 235 236 239 243 243 243 244 246 248 248 246 244 243 243 244 244 244
348 346 345 343 341 338 336 333 329 326 323 318 315 310 305 298 288 279 272 265 255 243 240 236 231 230 229 228 226 222 220 222 224 224 222 221 223 224 224 224 223 223 224 224 224 223 222 221 222 223 224 224 225 224 224 225 225 225 224 225 226 228 229 231 233 235 237 238 239 239 239 238 237 238 241 243 243 244 246 247 249 248 245 243 243 242 241 242
349 349 348 346 344 342 340 338 334 332 328 323 319 314 309 303 292 281 271 263 252 241 239 236 231 230 230 228 225 221 219 220 222 221 220 220 221 222 223 224 223 223 223 223 223 222 221 220 221 222 223 223 222 222 222 223 223 222 223 223 225 227 228 230 232 234 236 237 238 240 240 239 238 239 241 243 243 244 245 247 249 249 248 245 243 242 240 241
351 350 350 348 346 344 343 341 339 336 333 327 322 318 313 308 298 286 274 261 250 241 238 237 233 230 229 228 225 221 218 218 220 218 217 218 220 220 222 223 223 223 223 223 222 221 220 219 220 221 222 223 222 221 221 222 222 222 223 224 225 226 228 229 231 232 234 235 236 239 240 240 241 242 243 244 244 244 245 246 248 249 248 246 245 243 241 241
352 352 351 350 348 346 345 344 342 339 336 330 325 321 316 311 303 292 279 262 249 242 238 238 236 231 228 227 225 221 218 219 219 216 214 216 218 218 219 221 222 222 222 222 221 221 220 219 219 220 221 222 221 220 220 221 221 221 223 224 225 226 227 229 230 231 233 234 235 238 240 241 244 245 245 244 243 243 243 244 245 246 247 247 246 245 243 241
354 353 353 351 349 348 347 347 344 341 339 333 328 325 320 315 310 299 283 266 251 243 240 237 236 233 228 226 224 221 219 219 219 216 214 215 216 216 217 219 220 221 221 221 220 220 219 218 217 218 219 219 220 219 220 221 221 221 223 224 225 226 227 229 230 232 233 234 236 240 242 243 245 246 246 245 242 241 241 241 242 243 245 246 247 247 246 244
355 355 354 352 351 349 349 350 348 344 341 337 334 332 326 320 315 305 289 271 256 247 242 239 237 233 229 225 223 221 218 218 218 216 214 215 215 215 215 216 218 220 220 220 219 218 218 217 217 217 217 217 218 218 219 220 220 221 224 225 225 226 227 229 230 232 233 235 237 240 242 243 245 248 248 245 242 240 239 240 241 243 244 245 245 245 245 244
355 355 355 354 352 351 351 352 351 347 344 341 339 337 332 325 319 311 297 279 263 253 246 241 237 234 230 226 223 220 217 216 215 214 214 215 215 214 214 214 216 218 219 219 218 218 218 217 217 217 217 217 218 218 219 219 220 222 225 226 226 227 228 229 231 233 234 235 238 240 242 243 244 247 247 243 240 239 238 239 240 242 243 244 245 246 246 246
356 356 356 355 353 352 352 353 354 351 348 345 343 340 335 328 322 315 303 287 272 261 251 243 237 235 232 228 223 219 215 214 212 211 212 215 215 214 213 213 214 217 219 219 218 218 218 217 217 217 217 217 218 219 220 220 221 223 226 227 228 229 230 231 233 235 235 235 238 240 240 241 241 243 244 241 239 239 237 238 239 240 241 243 245 246 248 249
356 356 356 355 354 354 354 355 356 354 351 349 345 341 337 332 328 323 312 297 283 270 258 246 238 234 232 229 224 218 214 211 210 209 210 213 214 213 212 212 212 214 216 218 218 218 218 217 217 217 217 217 218 220 221 223 224 226 228 228 229 231 233 234 236 237 235 235 238 239 239 239 238 241 245 242 239 239 237 237 239 239 240 241 243 246 248 250
357 357 357 356 355 355 355 356 357 356 354 352 349 346 345 343 341 337 328 314 298 284 267 252 239 232 229 226 221 216 213 210 208 208 209 211 212 212 211 210 210 212 213 215 217 217 218 218 218 218 218 218 219 220 221 223 224 226 228 228 229 230 231 233 234 235 235 234 236 238 238 237 236 240 245 242 240 242 240 239 239 239 240 241 243 245 246 249
358 357 357 356 356 356 356 357 358 358 356 355 354 357 360 360 357 350 343 334 318 302 284 261 243 232 226 223 217 213 211 208 206 207 208 209 210 211 210 210 210 210 211 213 215 216 217 217 217 217 218 219 219 220 221 222 223 224 226 226 227 229 230 230 231 231 231 231 234 236 236 233 232 238 243 242 242 243 242 240 238 237 238 239 240 242 244 246
358 358 357 357 356 356 356 358 359 359 357 357 359 4 10 11 7 360 354 351 346 338 316 278 247 234 226 221 214 210 208 207 205 205 206 207 208 208 208 209 209 208 209 211 214 215 216 216 216 216 217 218 219 220 221 222 223 225 226 225 226 227 228 229 229 229 228 228 232 233 232 230 229 235 242 242 241 243 244 241 239 237 236 237 238 240 243 244
358 358 358 358 357 356 357 359 0 359 358 359 1 7 13 16 12 4 1 6 10 6 348 304 254 232 222 216 211 207 206 205 203 204 205 205 206 206 206 207 207 206 207 209 211 213 214 214 215 215 216 217 218 219 220 221 222 224 225 225 226 226 226 227 227 228 227 228 231 232 229 228 229 233 240 242 241 243 243 241 239 236 235 235 236 238 241 243
358 358 358 358 357 356 357 359 0 0 0 1 4 9 15 18 14 7 4 11 20 15 1 334 263 226 215 210 207 204 203 203 203 203 204 204 204 204 205 205 205 204 205 207 209 211 213 213 213 214 215 215 216 218 219 220 222 222 222 223 224 225 226 227 227 227 227 227 230 231 229 228 228 231 238 241 240 241 242 240 238 235 233 233 234 235 239 242
357 357 358 358 358 357 357 359 1 1 2 3 6 10 15 18 15 9 5 10 19 21 11 356 288 218 210 207 206 203 202 202 202 202 203 203 203 203 203 203 203 202 204 205 207 209 211 212 212 213 214 215 216 217 218 220 222 223 223 222 222 222 223 224 225 226 225 225 228 229 228 228 227 230 236 239 238 239 242 240 238 235 233 231 232 233 237 242
357 357 358 358 358 358 358 359 0 1 1 3 7 11 16 17 13 9 7 9 16 23 22 14 337 207 205 204 204 204 202 201 202 203 202 202 202 202 202 202 201 201 202 204 205 207 209 210 211 213 214 215 216 218 219 220 222 223 224 224 224 223 222 221 221 222 222 223 226 227 226 226 226 228 233 237 238 239 241 241 240 239 236 232 231 232 236 242
357 357 358 357 358 359 359 359 360 1 1 1 4 11 17 16 12 10 10 11 16 23 28 28 30 199 202 202 201 202 203 202 202 203 202 201 200 200 201 200 200 200 201 202 204 206 208 209 210 213 214 215 215 217 218 219 219 220 221 222 223 223 223 222 221 220 220 221 223 225 225 224 225 227 232 236 237 238 240 243 244 243 239 235 233 234 238 243
357 357 357 357 357 358 359 359 359 0 1 0 2 9 15 15 12 12 13 14 18 25 30 34 43 185 202 203 201 200 201 201 200 201 201 200 199 199 199 199 199 199 200 201 203 204 206 208 210 211 212 213 213 215 216 216 217 217 217 217 218 219 220 220 220 221 221 221 223 224 223 223 224 226 230 233 235 236 239 241 242 242 240 237 235 235 238 242
356 356 357 357 357 357 357 358 359 1 2 0 1 7 14 14 13 13 16 16 20 28 35 38 48 142 196 203 200 195 195 197 198 198 198 198 198 198 198 198 198 199 200 201 202 203 204 206 208 209 210 210 211 213 214 215 215 216 217 217 216 215 215 216 216 218 219 220 222 223 223 224 224 225 228 232 234 235 237 239 241 241 240 238 235 235 237 240
355 356 357 357 356 356 355 356 359 2 2 1 2 5 10 14 14 15 17 18 20 29 41 45 57 94 174 199 199 193 189 191 194 195 195 194 195 196 196 197 198 199 200 201 202 202 203 205 207 208 208 210 211 212 213 214 215 216 216 217 217 215 213 212 213 214 216 217 219 221 222 224 225 226 228 231 233 234 236 238 240 240 241 240 237 236 237 239
354 356 357 357 356 355 355 355 357 1 2 1 1 4 8 12 15 15 18 20 21 28 42 53 74 108 147 184 194 192 187 186 189 192 192 192 192 192 193 195 197 198 199 200 201 201 202 203 205 206 208 210 213 214 215 216 216 217 217 216 216 216 214 212 212 212 213 215 218 220 222 224 225 226 228 230 232 233 235 237 238 238 239 240 239 238 238 239
353 354 356 357 356 355 355 354 355 359 1 1 360 2 6 11 14 16 18 22 23 29 42 51 77 124 144 164 178 186 187 186 186 187 188 189 190 190 190 193 196 198 199 200 201 202 203 203 204 205 206 207 210 212 214 214 215 216 217 216 215 215 215 214 212 211 211 212 215 218 221 223 225 226 228 229 231 233 235 237 237 237 237 237 237 238 238 239
353 354 354 355 356 355 355 355 354 357 0 0 358 359 5 10 14 15 17 21 24 28 41 48 67 132 150 161 167 175 185 187 185 182 181 183 187 190 190 191 194 197 199 199 200 201 203 204 204 204 205 206 206 206 208 211 212 213 214 215 215 214 214 214 213 212 211 211 213 215 218 222 223 225 226 227 230 232 235 237 239 239 238 237 237 238 239 239
353 354 354 355 355 355 356 355 354 356 360 360 358 359 3 9 13 14 15 21 26 29 40 51 61 144 160 165 169 171 179 185 184 181 179 180 185 190 191 191 192 195 198 200 200 201 202 203 204 204 205 206 207 207 207 208 210 212 212 212 213 213 213 214 214 213 213 212 213 214 217 220 222 224 225 226 227 230 234 237 240 242 242 240 238 239 239 239
352 353 354 355 355 355 355 354 353 354 358 360 360 359 1 6 12 16 16 19 26 30 37 52 63 151 168 168 174 173 173 180 183 182 181 181 184 188 191 191 191 192 195 198 200 200 201 202 203 204 204 205 206 208 208 208 209 211 212 211 211 211 211 212 214 214 213 213 214 215 218 221 223 224 225 226 227 229 233 236 240 243 243 241 239 239 240 240
351 352 353 354 355 354 354 354 353 353 356 360 1 360 360 4 11 18 19 19 26 31 35 53 63 71 177 167 174 175 170 174 181 183 182 182 183 186 189 190 191 191 192 195 198 199 200 201 202 203 204 204 205 206 208 209 209 210 210 211 211 210 210 211 213 214 214 215 215 217 219 222 224 226 226 226 227 229 232 236 239 240 240 239 238 238 239 239
351 351 352 353 354 354 353 354 354 353 355 358 0 360 360 3 8 16 22 23 26 32 37 54 68 65 187 163 167 175 171 172 180 184 182 181 182 185 187 188 189 190 191 193 195 198 199 200 201 203 203 204 204 206 207 209 210 209 209 209 210 210 210 211 212 213 214 216 217 217 220 222 224 226 226 226 226 228 231 234 236 239 239 238 237 237 237 237
350 351 352 352 353 354 353 354 354 353 355 358 0 360 360 2 6 13 22 26 26 31 39 54 79 101 160 157 161 173 174 171 176 182 183 180 180 183 185 187 188 189 191 192 193 195 198 199 200 201 203 203 204 206 207 208 210 210 209 209 209 210 211 211 212 213 214 215 217 218 220 222 224 225 225 226 227 228 231 233 236 239 240 239 238 237 237 237
Height
10636 10635 10633 10632 10630 10628 10627 10625 10624 10623 10621 10620 10619 10618 10617 10617 10617 10617 10617 10618 10619 10620 10621 10622 10625 10627 10629 10632 10634 10635 10636 10637 10639 10641 10641 10643 10650 10652 10652 10655 10658 10660 10663 10664 10666 10669 10673 10675 10678 10681 10685 10689 10693 10696 10699 10703 10706 10710 10717 10726 10736 10740 10743 10744 10744 10743 10743 10739 10731 10730 10734 10744 10749 10748 10751 10755 10763 10766 10769 10774 10777 10779 10781 10783 10785 10786 10789 10789
10631 10629 10627 10625 10624 10622 10620 10619 10617 10616 10615 10613 10612 10611 10610 10609 10609 10608 10609 10609 10610 10611 10613 10615 10617 10620 10622 10625 10627 10629 10630 10631 10633 10634 10634 10639 10644 10645 10646 10649 10650 10654 10657 10657 10660 10664 10667 10671 10674 10676 10680 10684 10688 10690 10693 10697 10701 10707 10712 10721 10729 10733 10734 10734 10734 10734 10735 10734 10729 10727 10730 10740 10745 10743 10747 10754 10758 10762 10766 10770 10772 10774 10776 10779 10781 10784 10787 10787
10625 10623 10621 10619 10617 10615 10613 10611 10609 10608 10606 10605 10604 10603 10602 10601 10600 10600 10600 10600 10601 10601 10604 10606 10609 10612 10614 10617 10619 10622 10623 10625 10627 10626 10628 10634 10637 10638 10640 10642 10644 10648 10651 10652 10655 10659 10663 10666 10669 10671 10675 10679 10682 10684 10688 10693 10697 10702 10707 10716 10724 10724 10724 10725 10726 10728 10729 10728 10725 10724 10726 10736 10740 10738 10744 10752 10753 10758 10763 10765 10766 10769 10771 10775 10778 10781 10784 10786
10619 10616 10614 10611 10609 10606 10604 10602 10600 10599 10597 10596 10594 10593 10592 10591 10591 10590 10590 10591 10591 10592 10594 10596 10600 10603 10606 10609 10611 10614 10616 10618 10620 10619 10622 10627 10629 10632 10634 10636 10638 10642 10645 10647 10651 10655 10658 10661 10664 10667 10670 10674 10676 10679 10683 10688 10692 10696 10703 10711 10714 10713 10716 10718 10719 10720 10720 10721 10720 10720 10723 10732 10734 10733 10741 10748 10750 10755 10757 10759 10762 10765 10768 10772 10775 10779 10782 10784
10612 10609 10606 10603 10600 10597 10594 10592 10590 10588 10586 10584 10582 10582 10581 10580 10580 10579 10580 10580 10580 10581 10583 10586 10589 10592 10596 10599 10601 10606 10607 10609 10612 10611 10614 10618 10621 10625 10628 10630 10633 10636 10640 10643 10646 10649 10653 10656 10659 10662 10666 10670 10672 10675 10680 10683 10685 10691 10698 10703 10704 10707 10711 10713 10712 10712 10713 10715 10717 10718 10721 10725 10725 10731 10739 10743 10748 10751 10749 10753 10759 10763 10765 10768 10772 10775 10778 10780
10603 10600 10596 10593 10590 10586 10583 10580 10578 10575 10573 10571 10569 10568 10567 10567 10567 10566 10567 10567 10568 10570 10571 10575 10577 10581 10585 10588 10592 10597 10598 10602 10603 10600 10603 10609 10613 10618 10622 10624 10627 10631 10635 10638 10640 10643 10648 10651 10654 10658 10662 10665 10667 10672 10675 10675 10679 10687 10692 10695 10698 10702 10705 10705 10705 10707 10708 10711 10714 10714 10716 10717 10721 10731 10735 10737 10745 10745 10741 10748 10757 10759 10761 10764 10768 10771 10774 10776
10594 10590 10586 10582 10579 10575 10571 10567 10564 10561 10559 10556 10555 10553 10551 10551 10551 10552 10553 10554 10555 10556 10559 10562 10565 10570 10573 10576 10581 10585 10591 10592 10587 10588 10593 10600 10606 10610 10614 10617 10620 10625 10629 10632 10635 10638 10642 10646 10650 10653 10656 10660 10663 10667 10668 10669 10675 10683 10687 10689 10693 10697 10699 10699 10700 10702 10703 10706 10708 10707 10711 10715 10720 10726 10729 10734 10741 10739 10737 10745 10753 10754 10757 10761 10764 10767 10769 10771
10585 10581 10576 10572 10568 10563 10559 10554 10550 10547 10544 10541 10539 10536 10535 10534 10534 10535 10536 10538 10540 10542 10545 10548 10552 10557 10560 10565 10567 10574 10582 10573 10570 10581 10587 10592 10598 10601 10606 10610 10613 10618 10623 10626 10629 10633 10637 10641 10645 10648 10651 10655 10657 10660 10662 10664 10672 10680 10684 10685 10688 10692 10693 10693 10695 10697 10698 10701 10701 10703 10710 10713 10713 10718 10725 10732 10734 10733 10735 10742 10748 10750 10753 10757 10760 10762 10764 10765
10576 10571 10566 10561 10556 10550 10545 10540 10536 10531 10528 10525 10521 10519 10517 10515 10516 10517 10519 10521 10523 10526 10530 10533 10538 10541 10547 10552 10554 10566 10566 10551 10558 10575 10579 10583 10587 10591 10597 10602 10606 10611 10616 10620 10624 10627 10632 10636 10639 10641 10645 10648 10651 10655 10658 10662 10670 10677 10679 10679 10683 10686 10687 10687 10690 10692 10692 10695 10697 10702 10708 10707 10706 10714 10724 10728 10727 10728 10732 10738 10743 10746 10749 10753 10755 10758 10759 10760
10566 10560 10554 10548 10542 10536 10530 10525 10520 10515 10510 10506 10503 10499 10497 10496 10496 10498 10500 10502 10505 10509 10513 10517 10522 10526 10534 10537 10542 10555 10543 10532 10551 10565 10569 10575 10576 10582 10590 10594 10600 10604 10609 10614 10617 10621 10625 10628 10629 10633 10640 10644 10648 10652 10654 10660 10666 10670 10673 10675 10678 10681 10682 10684 10686 10686 10688 10691 10694 10699 10702 10700 10702 10714 10723 10722 10721 10724 10729 10735 10739 10742 10746 10749 10752 10754 10754 10752
10555 10548 10541 10533 10526 10520 10513 10506 10501 10495 10490 10486 10482 10479 10475 10475 10476 10478 10480 10482 10486 10490 10494 10500 10505 10511 10518 10522 10532 10536 10520 10524 10546 10551 10559 10566 10566 10575 10582 10588 10594 10596 10601 10606 10609 10613 10616 10618 10622 10629 10637 10641 10645 10647 10650 10655 10660 10664 10669 10671 10673 10677 10679 10681 10682 10681 10684 10687 10689 10693 10695 10696 10702 10715 10719 10713 10714 10719 10723 10730 10733 10737 10741 10744 10747 10748 10746 10745
10543 10534 10526 10517 10509 10502 10494 10487 10480 10474 10468 10464 10460 10457 10454 10453 10454 10457 10459 10462 10465 10468 10474 10480 10487 10495 10501 10511 10518 10513 10508 10521 10532 10536 10546 10552 10556 10565 10571 10578 10584 10587 10592 10596 10600 10604 10607 10610 10616 10626 10632 10636 10639 10641 10645 10651 10656 10659 10664 10667 10668 10672 10675 10677 10677 10676 10679 10682 10683 10686 10691 10695 10703 10711 10708 10703 10707 10713 10718 10724 10728 10732 10736 10739 10741 10738 10737 10738
10529 10519 10509 10500 10491 10483 10475 10467 10461 10455 10449 10444 10440 10436 10433 10432 10433 10437 10439 10442 10445 10448 10454 10459 10468 10477 10486 10500 10499 10491 10500 10511 10514 10520 10532 10540 10547 10554 10561 10568 10572 10577 10582 10585 10590 10594 10599 10604 10612 10620 10624 10630 10634 10636 10642 10647 10651 10654 10658 10662 10663 10668 10672 10673 10672 10671 10675 10677 10676 10680 10689 10695 10698 10701 10699 10696 10702 10708 10714 10718 10723 10728 10730 10732 10730 10729 10730 10732
10514 10503 10493 10483 10474 10465 10457 10450 10443 10437 10432 10427 10423 10418 10415 10412 10413 10417 10421 10424 10426 10429 10435 10442 10451 10459 10472 10487 10478 10474 10489 10496 10498 10507 10517 10530 10537 10540 10549 10555 10559 10567 10571 10575 10580 10585 10591 10597 10606 10613 10618 10626 10628 10630 10637 10641 10646 10649 10652 10658 10661 10665 10669 10667 10666 10667 10670 10672 10670 10676 10688 10691 10689 10692 10692 10692 10698 10704 10709 10713 10717 10722 10723 10723 10720 10720 10724 10726
10498 10487 10477 10467 10457 10449 10441 10434 10427 10421 10416 10410 10405 10400 10396 10394 10394 10397 10402 10407 10408 10411 10418 10425 10434 10441 10458 10470 10458 10457 10475 10481 10485 10492 10503 10519 10524 10527 10536 10542 10548 10555 10561 10566 10571 10578 10584 10591 10601 10607 10613 10618 10620 10625 10632 10636 10641 10644 10649 10656 10659 10661 10663 10661 10661 10664 10665 10665 10665 10673 10686 10685 10681 10685 10686 10688 10693 10699 10704 10708 10712 10715 10715 10714 10712 10714 10718 10721
10482 10472 10462 10452 10443 10434 10425 10418 10411 10405 10399 10393 10386 10381 10379 10379 10379 10381 10385 10389 10391 10395 10400 10407 10415 10424 10441 10451 10440 10442 10459 10467 10471 10478 10490 10505 10512 10516 10523 10533 10540 10544 10550 10555 10561 10569 10577 10586 10595 10600 10606 10611 10615 10621 10627 10631 10637 10641 10647 10652 10654 10656 10657 10655 10656 10658 10658 10658 10662 10670 10680 10680 10674 10677 10681 10684 10688 10693 10698 10702 10705 10708 10708 10706 10706 10710 10714 10716
10467 10457 10447 10438 10429 10420 10411 10404 10397 10390 10384 10377 10370 10366 10365 10365 10366 10366 10369 10372 10375 10379 10383 10390 10398 10408 10424 10431 10425 10427 10442 10453 10458 10466 10477 10490 10500 10505 10513 10524 10529 10533 10538 10543 10552 10562 10570 10580 10588 10592 10599 10605 10610 10615 10621 10630 10636 10639 10643 10647 10649 10650 10651 10650 10649 10651 10652 10653 10657 10664 10673 10673 10667 10669 10676 10680 10684 10688 10692 10696 10699 10701 10702 10701 10703 10707 10709 10711
10454 10443 10433 10424 10415 10406 10398 10391 10384 10377 10370 10362 10357 10354 10352 10351 10350 10351 10354 10356 10359 10362 10367 10373 10380 10392 10406 10409 10405 10408 10424 10438 10445 10453 10464 10476 10487 10494 10503 10513 10517 10522 10527 10533 10545 10555 10563 10573 10578 10584 10592 10599 10607 10613 10621 10629 10632 10633 10636 10639 10641 10641 10643 10643 10640 10641 10644 10646 10650 10658 10667 10668 10662 10664 10673 10677 10680 10683 10687 10690 10693 10695 10698 10699 10701 10704 10705 10706
10441 10430 10421 10412 10403 10394 10386 10379 10372 10365 10358 10350 10345 10343 10340 10338 10337 10337 10339 10341 10343 10346 10351 10357 10363 10375 10386 10385 10384 10391 10408 10425 10433 10441 10452 10465 10475 10483 10493 10501 10506 10512 10518 10527 10539 10547 10556 10564 10570 10580 10590 10599 10605 10610 10616 10621 10622 10624 10627 10630 10632 10632 10635 10635 10631 10633 10638 10641 10646 10653 10661 10663 10659 10661 10669 10673 10676 10680 10682 10684 10687 10691 10694 10695 10698 10700 10700 10700
10429 10418 10408 10400 10391 10382 10375 10368 10361 10354 10348 10340 10335 10332 10328 10326 10326 10326 10326 10327 10330 10333 10338 10343 10350 10360 10367 10365 10368 10379 10395 10412 10422 10430 10441 10454 10464 10472 10481 10489 10495 10502 10510 10521 10531 10538 10546 10555 10568 10579 10587 10592 10596 10601 10606 10610 10613 10615 10619 10623 10625 10627 10630 10629 10627 10628 10633 10638 10643 10649 10656 10660 10658 10660 10665 10670 10674 10677 10678 10679 10683 10687 10689 10690 10692 10694 10694 10694
10418 10407 10397 10389 10380 10372 10364 10357 10351 10344 10338 10332 10327 10322 10318 10315 10316 10315 10314 10315 10320 10324 10327 10332 10339 10347 10350 10349 10353 10367 10384 10400 10410 10417 10429 10442 10451 10460 10469 10477 10486 10495 10504 10512 10518 10525 10536 10552 10567 10574 10577 10580 10585 10591 10596 10601 10605 10608 10613 10618 10619 10622 10625 10624 10623 10623 10628 10635 10639 10644 10651 10657 10657 10656 10660 10665 10671 10673 10673 10675 10679 10683 10684 10685 10688 10690 10691 10693
10408 10397 10387 10378 10371 10362 10355 10348 10341 10334 10328 10323 10318 10314 10310 10307 10306 10306 10304 10306 10311 10316 10318 10323 10330 10334 10334 10333 10340 10357 10376 10387 10393 10400 10414 10429 10439 10447 10455 10465 10476 10486 10492 10498 10507 10519 10535 10552 10562 10564 10567 10571 10577 10583 10588 10594 10598 10601 10607 10612 10614 10618 10619 10620 10618 10618 10624 10631 10635 10639 10646 10652 10653 10652 10655 10661 10667 10668 10668 10671 10676 10679 10681 10683 10685 10687 10689 10692
10400 10388 10378 10369 10361 10354 10346 10339 10332 10325 10319 10313 10309 10306 10302 10300 10298 10298 10297 10298 10304 10307 10307 10311 10316 10318 10318 10320 10329 10349 10365 10370 10373 10381 10400 10417 10426 10434 10443 10455 10467 10473 10479 10490 10504 10518 10534 10546 10551 10554 10559 10563 10569 10576 10581 10587 10592 10597 10603 10607 10610 10613 10614 10615 10613 10613 10620 10627 10631 10635 10641 10646 10649 10649 10652 10658 10662 10663 10664 10668 10672 10676 10678 10680 10681 10683 10686 10688
10392 10381 10370 10360 10353 10346 10338 10331 10324 10318 10311 10306 10302 10298 10296 10293 10291 10291 10291 10292 10296 10298 10296 10298 10303 10303 10305 10310 10321 10338 10349 10353 10356 10367 10388 10405 10413 10421 10433 10444 10455 10463 10474 10486 10498 10511 10524 10534 10538 10543 10549 10554 10561 10569 10575 10582 10587 10592 10597 10602 10605 10606 10608 10608 10606 10609 10616 10623 10627 10631 10637 10643 10647 10648 10648 10652 10657 10659 10662 10665 10668 10671 10673 10674 10676 10678 10681 10682
10386 10375 10364 10354 10345 10338 10331 10325 10318 10311 10305 10300 10296 10293 10290 10288 10286 10285 10285 10286 10289 10290 10287 10289 10294 10294 10296 10302 10313 10326 10336 10342 10346 10357 10378 10393 10400 10412 10422 10432 10445 10457 10468 10477 10487 10501 10514 10523 10529 10534 10540 10547 10555 10563 10570 10576 10580 10585 10591 10596 10597 10599 10601 10601 10601 10606 10612 10620 10624 10626 10634 10641 10643 10644 10644 10647 10652 10656 10658 10661 10663 10665 10667 10669 10671 10673 10676 10677
10380 10369 10358 10348 10339 10332 10325 10319 10312 10305 10300 10295 10291 10288 10285 10283 10281 10280 10280 10281 10283 10283 10280 10282 10285 10287 10291 10297 10307 10318 10327 10331 10334 10347 10368 10380 10388 10402 10412 10423 10438 10449 10458 10466 10477 10492 10505 10515 10522 10527 10533 10540 10548 10558 10564 10568 10573 10579 10585 10588 10589 10592 10594 10595 10597 10602 10608 10616 10620 10624 10632 10636 10638 10640 10640 10643 10648 10652 10655 10658 10659 10661 10663 10664 10666 10668 10672 10674
10375 10364 10353 10344 10335 10328 10320 10314 10307 10301 10296 10291 10287 10284 10281 10279 10277 10275 10275 10276 10277 10277 10276 10276 10279 10283 10287 10293 10301 10310 10316 10318 10322 10339 10359 10368 10376 10390 10402 10416 10429 10439 10447 10456 10470 10486 10499 10508 10515 10520 10527 10535 10544 10554 10559 10562 10567 10573 10578 10580 10582 10585 10587 10588 10592 10598 10604 10611 10616 10622 10628 10631 10634 10637 10638 10641 10645 10648 10652 10655 10655 10656 10658 10659 10661 10664 10669 10670
10370 10359 10349 10340 10332 10324 10317 10310 10303 10298 10293 10288 10284 10280 10277 10275 10273 10272 10271 10272 10272 10273 10273 10272 10275 10279 10283 10288 10295 10302 10307 10309 10315 10332 10348 10354 10362 10376 10390 10405 10418 10428 10438 10450 10468 10483 10491 10500 10507 10513 10520 10530 10541 10548 10551 10554 10560 10567 10570 10571 10574 10577 10580 10582 10587 10594 10600 10607 10615 10620 10624 10629 10632 10633 10635 10639 10642 10645 10647 10649 10649 10651 10653 10655 10658 10660 10663 10664
10367 10356 10345 10336 10328 10321 10315 10308 10301 10295 10290 10286 10282 10278 10275 10272 10270 10269 10268 10268 10268 10268 10269 10270 10272 10276 10279 10283 10288 10295 10301 10305 10313 10329 10340 10344 10352 10365 10379 10394 10407 10418 10428 10444 10461 10470 10478 10490 10499 10504 10514 10525 10533 10538 10541 10546 10553 10559 10559 10561 10565 10569 10573 10578 10584 10591 10596 10606 10615 10617 10621 10627 10628 10628 10632 10636 10638 10640 10641 10642 10644 10646 10649 10652 10655 10656 10656 10658
10364 10354 10343 10334 10326 10318 10312 10306 10299 10293 10288 10283 10279 10275 10272 10270 10268 10266 10265 10265 10264 10265 10266 10267 10269 10272 10275 10279 10283 10288 10295 10302 10312 10326 10334 10337 10344 10356 10368 10383 10397 10408 10420 10435 10449 10458 10469 10481 10488 10495 10507 10516 10520 10525 10531 10538 10544 10548 10549 10552 10558 10563 10570 10576 10582 10588 10595 10608 10614 10613 10617 10624 10625 10626 10629 10632 10634 10634 10635 10638 10640 10642 10645 10649 10650 10650 10649 10651
10362 10352 10342 10332 10324 10316 10309 10303 10297 10291 10286 10281 10277 10273 10270 10268 10266 10264 10263 10262 10262 10262 10263 10265 10267 10269 10271 10275 10279 10284 10292 10298 10308 10319 10326 10329 10337 10348 10360 10375 10390 10402 10414 10428 10442 10452 10462 10472 10481 10490 10498 10504 10510 10516 10523 10529 10535 10540 10541 10546 10554 10561 10568 10574 10580 10586 10598 10609 10608 10608 10614 10620 10623 10623 10624 10628 10629 10628 10631 10634 10636 10638 10642 10646 10646 10645 10644 10647
10361 10350 10341 10331 10323 10315 10308 10302 10296 10290 10285 10280 10276 10272 10269 10266 10264 10262 10261 10260 10260 10260 10261 10263 10265 10267 10269 10273 10278 10283 10289 10295 10302 10311 10317 10323 10333 10346 10358 10372 10386 10398 10411 10426 10439 10447 10455 10465 10475 10482 10488 10497 10504 10510 10517 10524 10531 10535 10537 10544 10554 10561 10568 10575 10582 10590 10601 10606 10602 10603 10610 10616 10621 10618 10617 10623 10624 10623 10627 10629 10630 10635 10640 10643 10643 10642 10642 10644
10360 10349 10339 10331 10322 10315 10307 10301 10295 10290 10285 10280 10276 10272 10269 10266 10263 10261 10260 10259 10259 10259 10260 10261 10263 10266 10268 10272 10277 10282 10286 10291 10297 10304 10310 10317 10328 10340 10352 10365 10378 10391 10407 10421 10431 10438 10447 10456 10465 10472 10482 10493 10500 10507 10517 10526 10532 10535 10538 10547 10556 10563 10570 10578 10584 10590 10597 10600 10596 10599 10606 10614 10618 10613 10612 10619 10619 10619 10623 10624 10628 10634 10637 10639 10640 10640 10640 10641
10360 10349 10339 10330 10322 10314 10307 10301 10296 10290 10285 10281 10277 10272 10269 10266 10263 10261 10260 10259 10259 10258 10259 10260 10262 10264 10266 10270 10274 10279 10283 10287 10293 10299 10305 10313 10323 10334 10347 10358 10370 10383 10398 10411 10421 10431 10440 10450 10461 10471 10481 10490 10497 10506 10515 10520 10525 10529 10534 10543 10552 10560 10569 10574 10579 10585 10591 10594 10591 10594 10604 10613 10615 10609 10607 10614 10615 10616 10620 10622 10626 10631 10633 10636 10636 10636 10637 10637
10360 10349 10339 10330 10322 10314 10308 10302 10296 10291 10286 10282 10277 10273 10269 10266 10264 10262 10260 10259 10259 10258 10259 10260 10261 10263 10265 10268 10272 10276 10280 10285 10290 10296 10303 10311 10320 10332 10345 10356 10366 10378 10392 10404 10415 10424 10434 10446 10458 10467 10475 10483 10492 10499 10505 10509 10515 10520 10525 10537 10549 10557 10562 10566 10572 10578 10584 10587 10586 10591 10602 10609 10610 10605 10603 10608 10612 10613 10616 10619 10623 10626 10629 10632 10632 10632 10633 10634
10362 10352 10341 10331 10322 10315 10309 10303 10297 10292 10287 10283 10278 10273 10270 10267 10265 10263 10261 10260 10259 10258 10258 10259 10260 10262 10264 10267 10271 10274 10278 10282 10288 10294 10300 10307 10317 10328 10339 10349 10359 10372 10386 10399 10408 10417 10428 10439 10448 10456 10465 10475 10483 10490 10496 10504 10511 10516 10525 10539 10547 10550 10555 10561 10567 10572 10578 10582 10582 10589 10599 10604 10605 10602 10599 10604 10608 10610 10613 10616 10618 10622 10626 10628 10628 10628 10629 10629
10360 10351 10342 10332 10323 10316 10310 10304 10298 10293 10289 10284 10279 10275 10270 10267 10266 10264 10263 10260 10259 10258 10258 10259 10260 10262 10264 10267 10270 10273 10276 10281 10286 10291 10297 10304 10313 10323 10333 10342 10354 10367 10380 10391 10401 10412 10423 10432 10441 10450 10458 10467 10474 10480 10488 10496 10504 10513 10526 10536 10539 10542 10550 10557 10562 10568 10575 10580 10580 10586 10595 10599 10602 10600 10595 10599 10605 10607 10609 10611 10614 10618 10621 10624 10624 10624 10624 10624
10359 10350 10343 10334 10325 10317 10311 10305 10300 10295 10290 10285 10280 10276 10272 10269 10268 10266 10264 10262 10260 10259 10259 10260 10261 10262 10264 10266 10269 10272 10275 10280 10284 10289 10295 10302 10310 10319 10328 10338 10350 10363 10373 10384 10395 10405 10414 10424 10434 10441 10448 10456 10463 10470 10481 10492 10501 10510 10519 10524 10530 10539 10548 10554 10559 10566 10573 10576 10577 10583 10591 10595 10599 10597 10592 10594 10601 10603 10605 10607 10610 10613 10617 10619 10620 10620 10620 10619
10361 10352 10344 10336 10328 10319 10312 10306 10301 10296 10292 10287 10283 10279 10275 10271 10269 10268 10266 10263 10261 10260 10260 10261 10262 10264 10265 10267 10270 10272 10275 10279 10284 10288 10294 10301 10308 10316 10325 10335 10346 10358 10368 10378 10388 10398 10408 10417 10426 10433 10440 10448 10457 10469 10483 10493 10500 10506 10512 10518 10527 10535 10542 10549 10555 10562 10568 10572 10574 10579 10586 10591 10595 10594 10588 10590 10597 10600 10602 10604 10605 10607 10612 10615 10617 10617 10616 10616
10362 10353 10343 10335 10328 10321 10313 10307 10302 10297 10293 10289 10285 10281 10277 10273 10271 10270 10268 10265 10263 10262 10262 10262 10263 10265 10267 10269 10271 10273 10276 10280 10284 10288 10293 10299 10307 10315 10323 10333 10343 10353 10362 10371 10381 10392 10402 10411 10419 10425 10433 10445 10461 10476 10486 10491 10495 10503 10511 10520 10527 10533 10538 10544 10549 10555 10563 10567 10569 10574 10581 10587 10590 10589 10585 10588 10594 10597 10599 10600 10600 10603 10608 10612 10613 10614 10613 10614
10361 10351 10342 10334 10327 10321 10315 10308 10303 10299 10295 10291 10287 10283 10279 10276 10274 10272 10269 10267 10265 10264 10263 10264 10265 10267 10269 10271 10273 10275 10278 10282 10286 10290 10295 10300 10307 10314 10323 10332 10341 10350 10358 10367 10378 10388 10397 10406 10414 10422 10436 10454 10467 10474 10476 10480 10487 10495 10504 10513 10521 10528 10535 10540 10546 10553 10559 10562 10564 10569 10576 10582 10585 10585 10583 10585 10591 10594 10596 10597 10598 10600 10605 10608 10610 10611 10611 10613
10362 10352 10344 10336 10328 10322 10317 10312 10307 10301 10297 10293 10289 10285 10281 10278 10276 10273 10271 10269 10267 10266 10265 10266 10267 10269 10271 10273 10275 10277 10281 10284 10288 10292 10297 10302 10308 10315 10323 10332 10340 10348 10356 10364 10372 10381 10392 10403 10412 10425 10441 10452 10455 10456 10461 10469 10477 10484 10492 10502 10511 10521 10530 10537 10545 10551 10554 10558 10561 10566 10572 10577 10580 10582 10581 10583 10587 10591 10593 10595 10595 10597 10601 10604 10607 10608 10610 10611
10365 10355 10346 10338 10330 10323 10318 10314 10310 10304 10299 10296 10292 10287 10283 10280 10278 10275 10273 10271 10269 10268 10268 10268 10270 10271 10273 10275 10278 10280 10283 10286 10290 10294 10298 10304 10310 10316 10324 10331 10339 10345 10352 10359 10367 10378 10390 10401 10410 10423 10433 10436 10439 10444 10451 10460 10470 10479 10490 10500 10509 10518 10526 10532 10538 10542 10547 10553 10557 10562 10568 10572 10575 10578 10579 10580 10584 10588 10589 10590 10592 10594 10596 10599 10602 10605 10607 10607
10367 10358 10348 10339 10331 10324 10319 10314 10309 10304 10300 10297 10293 10289 10285 10282 10279 10277 10275 10273 10271 10270 10270 10271 10272 10274 10276 10278 10280 10282 10284 10287 10291 10295 10299 10304 10310 10317 10325 10332 10339 10346 10353 10361 10369 10379 10389 10397 10406 10416 10421 10423 10427 10434 10445 10459 10472 10483 10493 10501 10509 10515 10519 10524 10530 10535 10542 10548 10553 10559 10564 10568 10571 10575 10577 10577 10580 10584 10585 10586 10589 10591 10593 10595 10598 10601 10603 10604
10365 10358 10351 10342 10333 10326 10319 10313 10309 10305 10301 10297 10294 10291 10287 10284 10281 10279 10277 10275 10273 10273 10272 10273 10274 10276 10278 10280 10282 10284 10286 10288 10291 10295 10299 10304 10310 10317 10324 10332 10338 10344 10351 10357 10365 10373 10379 10387 10397 10406 10414 10422 10433 10446 10460 10473 10481 10486 10492 10498 10505 10511 10516 10521 10526 10532 10539 10545 10551 10556 10560 10564 10568 10571 10574 10574 10576 10579 10580 10582 10586 10588 10590 10592 10595 10597 10599 10601
10365 10356 10350 10344 10336 10328 10321 10315 10309 10306 10302 10299 10296 10293 10290 10286 10283 10281 10279 10277 10276 10275 10275 10276 10277 10278 10279 10281 10283 10285 10288 10289 10292 10295 10300 10306 10312 10317 10322 10328 10334 10340 10346 10353 10361 10369 10376 10384 10394 10403 10414 10427 10442 10455 10465 10471 10475 10481 10488 10495 10502 10508 10513 10518 10523 10529 10535 10541 10547 10552 10556 10560 10564 10568 10570 10571 10572 10574 10576 10578 10582 10584 10587 10589 10590 10592 10594 10596
10370 10360 10351 10344 10338 10331 10324 10318 10312 10308 10304 10300 10298 10295 10291 10288 10285 10283 10281 10280 10279 10278 10278 10278 10279 10280 10280 10282 10283 10286 10289 10291 10293 10297 10301 10306 10311 10316 10320 10325 10331 10338 10346 10354 10362 10371 10379 10389 10399 10408 10418 10427 10435 10443 10452 10460 10468 10476 10483 10491 10499 10504 10510 10516 10522 10527 10532 10537 10543 10548 10552 10556 10560 10563 10566 10567 10569 10570 10572 10574 10577 10580 10583 10585 10587 10588 10590 10592
10371 10364 10355 10346 10338 10331 10325 10319 10314 10309 10306 10302 10300 10297 10293 10290 10288 10285 10284 10282 10281 10281 10281 10281 10282 10282 10283 10283 10284 10286 10289 10293 10295 10298 10301 10304 10309 10314 10318 10324 10331 10340 10349 10357 10364 10373 10382 10392 10401 10410 10419 10427 10434 10441 10449 10457 10465 10472 10479 10487 10495 10501 10508 10514 10519 10524 10529 10535 10541 10545 10548 10552 10556 10559 10562 10564 10565 10566 10568 10571 10573 10577 10580 10582 10584 10584 10585 10588
10369 10362 10355 10347 10339 10332 10326 10320 10315 10311 10308 10304 10301 10299 10296 10293 10290 10288 10286 10285 10284 10283 10283 10283 10284 10285 10285 10286 10287 10289 10291 10294 10298 10300 10302 10305 10309 10315 10321 10327 10334 10341 10350 10358 10366 10374 10382 10392 10401 10409 10417 10425 10434 10442 10449 10456 10462 10469 10477 10485 10491 10497 10504 10510 10514 10520 10527 10533 10538 10542 10546 10549 10552 10556 10558 10560 10562 10563 10565 10568 10571 10574 10576 10578 10580 10580 10581 10584
10368 10360 10353 10347 10340 10334 10328 10323 10317 10312 10309 10306 10303 10301 10298 10295 10292 10290 10288 10287 10286 10286 10286 10286 10287 10287 10288 10289 10290 10292 10294 10296 10299 10302 10304 10307 10312 10318 10325 10331 10337 10343 10350 10358 10367 10375 10383 10390 10399 10407 10415 10423 10431 10440 10448 10455 10461 10467 10474 10481 10487 10494 10500 10506 10511 10518 10525 10530 10535 10540 10544 10547 10550 10553 10555 10556 10558 10560 10563 10565 10568 10570 10572 10574 10575 10575 10577 10580
10372 10363 10354 10347 10341 10335 10329 10324 10319 10314 10310 10307 10304 10302 10300 10297 10294 10292 10290 10289 10288 10288 10288 10288 10288 10290 10291 10292 10293 10295 10296 10298 10300 10304 10307 10311 10316 10321 10327 10333 10339 10345 10351 10357 10366 10374 10382 10390 10398 10405 10413 10422 10430 10437 10445 10451 10457 10463 10471 10478 10485 10492 10498 10503 10508 10515 10521 10526 10532 10537 10541 10543 10546 10548 10550 10552 10553 10556 10559 10561 10564 10566 10568 10569 10569 10570 10572 10576
10373 10366 10357 10349 10342 10336 10330 10324 10319 10315 10312 10308 10305 10303 10301 10299 10296 10294 10292 10291 10290 10289 10289 10290 10290 10291 10293 10294 10295 10297 10298 10300 10303 10307 10310 10313 10317 10323 10328 10334 10340 10345 10351 10357 10364 10372 10380 10388 10396 10404 10412 10421 10429 10435 10441 10448 10454 10462 10470 10477 10483 10489 10494 10499 10505 10511 10516 10522 10528 10533 10536 10538 10540 10543 10545 10546 10549 10552 10555 10557 10560 10561 10563 10563 10563 10565 10569 10572